SAUDISAT 5B

Last updated on Mon Sep 07 2026 00:02:46 GMT+0000 (Coordinated Universal Time)

1 43833U 18102C 26249.61467045 .00003100 00000+0 11268-3 0 9993 2 43833 97.3103 312.8476 0009569 198.0039 162.0863 15.28977918428238
UTC large
Height (km)
Speed (km/s)
/
Latitude / Longitude
Inclination (degrees)
Orbital Period (minutes)
Azimuth
Elevation
Range (km)
Doppler Factor

Next 0 passes for location: London (51.5072 / 0.1276)

No passes found over London.
SAUDISAT 5B